Time,TemperatureF,DewpointF,PressureIn,WindDirection,WindDirectionDegrees,WindSpeedMPH,WindSpeedGustMPH,Humidity,HourlyPrecipIn,Conditions,Clouds,dailyrainin,SoftwareType,DateUTC
2013-08-22 00:00:00,80.8,77.9,30.14,South,188,0.0,0.0,91,0.00,,---,0.00,VWS V14.01,2013-08-22 04:00:00,
2013-08-22 00:01:00,80.8,77.9,30.14,South,191,0.0,0.0,91,0.00,,---,0.00,VWS V14.01,2013-08-22 04:01:00,
2013-08-22 00:06:00,79.4,75.5,30.14,SW,217,0.0,0.0,88,0.00,,---,0.00,VWS V14.01,2013-08-22 04:06:00,
2013-08-22 00:11:00,79.6,75.4,30.14,SW,217,0.0,0.0,87,0.00,,---,0.00,VWS V14.01,2013-08-22 04:11:00,
2013-08-22 00:16:00,79.6,75.1,30.13,SW,218,0.0,0.0,86,0.00,,---,0.00,VWS V14.01,2013-08-22 04:16:00,
2013-08-22 00:21:00,79.6,75.1,30.13,SW,218,0.0,0.0,86,0.00,,---,0.00,VWS V14.01,2013-08-22 04:21:00,
2013-08-22 00:26:00,79.6,74.7,30.13,SW,218,0.0,0.0,85,0.00,,---,0.00,VWS V14.01,2013-08-22 04:26:00,
2013-08-22 00:31:00,79.8,74.9,30.13,SW,218,0.0,0.0,85,0.00,,---,0.00,VWS V14.01,2013-08-22 04:31:00,
2013-08-22 00:36:00,79.8,74.9,30.13,SW,218,0.0,0.0,85,0.00,,---,0.00,VWS V14.01,2013-08-22 04:36:00,
2013-08-22 00:41:00,79.5,74.2,30.13,SW,218,0.0,0.0,84,0.00,,---,0.00,VWS V14.01,2013-08-22 04:41:00,
2013-08-22 00:46:00,79.6,74.3,30.13,SW,218,0.0,0.0,84,0.00,,---,0.00,VWS V14.01,2013-08-22 04:46:00,
2013-08-22 00:51:00,79.6,74.0,30.13,SW,218,0.0,0.0,83,0.00,,---,0.00,VWS V14.01,2013-08-22 04:51:00,
2013-08-22 00:56:00,79.6,74.3,30.13,SW,218,0.0,0.0,84,0.00,,---,0.00,VWS V14.01,2013-08-22 04:56:00,
2013-08-22 01:01:00,79.8,74.5,30.13,SW,218,0.0,0.0,84,0.00,,---,0.00,VWS V14.01,2013-08-22 05:01:00,
2013-08-22 01:06:00,79.7,74.4,30.13,SW,218,0.0,0.0,84,0.00,,---,0.00,VWS V14.01,2013-08-22 05:06:00,
2013-08-22 01:11:00,79.7,74.4,30.13,SW,218,0.0,0.0,84,0.00,,---,0.00,VWS V14.01,2013-08-22 05:11:00,
2013-08-22 01:16:00,79.9,74.3,30.12,SW,218,0.0,0.0,83,0.00,,---,0.00,VWS V14.01,2013-08-22 05:16:00,
2013-08-22 01:21:00,80.0,74.4,30.12,SW,218,0.0,0.0,83,0.00,,---,0.00,VWS V14.01,2013-08-22 05:21:00,
2013-08-22 01:26:00,80.1,74.5,30.12,SW,219,0.0,0.0,83,0.00,,---,0.00,VWS V14.01,2013-08-22 05:26:00,
2013-08-22 01:31:00,80.1,74.5,30.12,SW,219,0.0,0.0,83,0.00,,---,0.00,VWS V14.01,2013-08-22 05:31:00,
2013-08-22 01:36:00,80.4,74.8,30.12,SW,219,0.0,0.0,83,0.00,,---,0.00,VWS V14.01,2013-08-22 05:36:00,
2013-08-22 01:41:00,80.3,74.7,30.12,SW,225,0.0,0.0,83,0.00,,---,0.00,VWS V14.01,2013-08-22 05:41:00,
2013-08-22 01:46:00,80.2,74.6,30.13,SW,226,0.0,0.0,83,0.00,,---,0.00,VWS V14.01,2013-08-22 05:46:00,
2013-08-22 01:51:00,80.2,74.6,30.13,SW,230,0.0,0.0,83,0.00,,---,0.00,VWS V14.01,2013-08-22 05:51:00,
2013-08-22 01:56:00,80.1,74.5,30.13,SW,234,0.0,0.0,83,0.00,,---,0.00,VWS V14.01,2013-08-22 05:56:00,
2013-08-22 02:01:00,80.1,74.8,30.13,SW,234,0.0,0.0,84,0.00,,---,0.00,VWS V14.01,2013-08-22 06:01:00,
2013-08-22 02:06:00,80.1,74.8,30.13,SW,235,0.0,0.0,84,0.00,,---,0.00,VWS V14.01,2013-08-22 06:06:00,
2013-08-22 02:11:00,80.2,74.9,30.13,SW,236,0.0,0.0,84,0.00,,---,0.00,VWS V14.01,2013-08-22 06:11:00,
2013-08-22 02:16:00,80.2,74.9,30.13,SW,236,0.0,0.0,84,0.00,,---,0.00,VWS V14.01,2013-08-22 06:16:00,
2013-08-22 02:21:00,80.3,75.0,30.13,SW,236,0.0,0.0,84,0.00,,---,0.00,VWS V14.01,2013-08-22 06:21:00,
2013-08-22 02:26:00,80.5,75.6,30.13,WSW,240,0.0,0.0,85,0.00,,---,0.00,VWS V14.01,2013-08-22 06:26:00,
2013-08-22 02:31:00,80.4,75.8,30.13,WSW,241,0.0,0.0,86,0.00,,---,0.00,VWS V14.01,2013-08-22 06:31:00,
2013-08-22 02:36:00,80.2,75.6,30.13,WSW,241,0.0,0.0,86,0.00,,---,0.00,VWS V14.01,2013-08-22 06:36:00,
2013-08-22 02:41:00,80.1,75.9,30.13,WSW,241,0.0,0.0,87,0.00,,---,0.00,VWS V14.01,2013-08-22 06:41:00,
2013-08-22 02:46:00,80.1,75.9,30.13,WSW,245,0.0,0.0,87,0.00,,---,0.00,VWS V14.01,2013-08-22 06:46:00,
2013-08-22 02:51:00,79.6,75.1,30.13,WSW,246,0.0,0.0,86,0.00,,---,0.00,VWS V14.01,2013-08-22 06:51:00,
2013-08-22 02:56:00,79.4,74.8,30.13,WSW,246,0.0,0.0,86,0.00,,---,0.00,VWS V14.01,2013-08-22 06:56:00,
2013-08-22 03:01:00,78.7,74.2,30.13,WSW,247,0.0,0.0,86,0.00,,---,0.00,VWS V14.01,2013-08-22 07:01:00,
2013-08-22 03:06:00,78.0,73.8,30.13,WSW,248,0.0,0.0,87,0.00,,---,0.00,VWS V14.01,2013-08-22 07:06:00,
2013-08-22 03:11:00,77.6,73.4,30.13,WSW,248,0.0,0.0,87,0.00,,---,0.00,VWS V14.01,2013-08-22 07:11:00,
2013-08-22 03:16:00,77.4,73.6,30.13,WSW,248,0.0,0.0,88,0.00,,---,0.00,VWS V14.01,2013-08-22 07:16:00,
2013-08-22 03:21:00,77.1,73.3,30.13,WSW,248,0.0,0.0,88,0.00,,---,0.00,VWS V14.01,2013-08-22 07:21:00,
2013-08-22 03:26:00,76.9,73.1,30.13,WSW,248,0.0,0.0,88,0.00,,---,0.00,VWS V14.01,2013-08-22 07:26:00,
2013-08-22 03:31:00,76.8,73.0,30.13,WSW,248,0.0,0.0,88,0.00,,---,0.00,VWS V14.01,2013-08-22 07:31:00,
2013-08-22 03:36:00,76.7,73.2,30.13,WSW,248,0.0,0.0,89,0.00,,---,0.00,VWS V14.01,2013-08-22 07:36:00,
2013-08-22 03:41:00,76.6,73.1,30.13,WSW,248,0.0,0.0,89,0.00,,---,0.00,VWS V14.01,2013-08-22 07:41:00,
2013-08-22 03:46:00,76.5,73.0,30.13,WSW,248,0.0,0.0,89,0.00,,---,0.00,VWS V14.01,2013-08-22 07:46:00,
2013-08-22 03:51:00,76.3,72.8,30.13,WSW,248,0.0,0.0,89,0.00,,---,0.00,VWS V14.01,2013-08-22 07:51:00,
2013-08-22 03:56:00,76.1,72.6,30.13,WSW,248,0.0,0.0,89,0.00,,---,0.00,VWS V14.01,2013-08-22 07:56:00,
2013-08-22 04:01:00,75.8,72.3,30.13,WSW,248,0.0,0.0,89,0.00,,---,0.00,VWS V14.01,2013-08-22 08:01:00,
2013-08-22 04:06:00,75.7,72.2,30.13,WSW,248,0.0,0.0,89,0.00,,---,0.00,VWS V14.01,2013-08-22 08:06:00,
2013-08-22 04:11:00,75.6,72.5,30.13,WSW,248,0.0,0.0,90,0.00,,---,0.00,VWS V14.01,2013-08-22 08:11:00,
2013-08-22 04:16:00,75.7,72.6,30.13,WSW,248,0.0,0.0,90,0.00,,---,0.00,VWS V14.01,2013-08-22 08:16:00,
2013-08-22 04:21:00,75.6,72.5,30.13,WSW,248,0.0,0.0,90,0.00,,---,0.00,VWS V14.01,2013-08-22 08:21:00,
2013-08-22 04:26:00,75.6,72.5,30.13,WSW,248,0.0,0.0,90,0.00,,---,0.00,VWS V14.01,2013-08-22 08:26:00,
2013-08-22 04:31:00,75.6,72.5,30.12,WSW,248,0.0,0.0,90,0.00,,---,0.00,VWS V14.01,2013-08-22 08:31:00,
2013-08-22 04:36:00,75.6,72.5,30.12,WSW,248,0.0,0.0,90,0.00,,---,0.00,VWS V14.01,2013-08-22 08:36:00,
2013-08-22 04:41:00,75.7,72.6,30.12,WSW,248,0.0,0.0,90,0.00,,---,0.00,VWS V14.01,2013-08-22 08:41:00,
2013-08-22 04:46:00,75.7,72.6,30.12,WSW,248,0.0,0.0,90,0.00,,---,0.00,VWS V14.01,2013-08-22 08:46:00,
2013-08-22 04:51:00,75.7,72.6,30.12,WSW,248,0.0,0.0,90,0.00,,---,0.00,VWS V14.01,2013-08-22 08:51:00,
2013-08-22 04:56:00,75.5,72.4,30.12,WSW,248,0.0,0.0,90,0.00,,---,0.00,VWS V14.01,2013-08-22 08:56:00,
2013-08-22 05:01:00,75.4,72.3,30.12,WSW,248,0.0,0.0,90,0.00,,---,0.00,VWS V14.01,2013-08-22 09:01:00,
2013-08-22 05:06:00,75.3,72.2,30.12,WSW,248,0.0,0.0,90,0.00,,---,0.00,VWS V14.01,2013-08-22 09:06:00,
2013-08-22 05:11:00,75.3,72.2,30.12,WSW,248,0.0,0.0,90,0.00,,---,0.00,VWS V14.01,2013-08-22 09:11:00,
2013-08-22 05:16:00,75.2,72.1,30.12,WSW,248,0.0,0.0,90,0.00,,---,0.00,VWS V14.01,2013-08-22 09:16:00,
2013-08-22 05:21:00,75.2,72.1,30.12,WSW,248,0.0,0.0,90,0.00,,---,0.00,VWS V14.01,2013-08-22 09:21:00,
2013-08-22 05:26:00,75.2,72.1,30.12,WSW,248,0.0,0.0,90,0.00,,---,0.00,VWS V14.01,2013-08-22 09:26:00,
2013-08-22 05:31:00,75.2,72.1,30.12,WSW,248,0.0,0.0,90,0.00,,---,0.00,VWS V14.01,2013-08-22 09:31:00,
2013-08-22 05:36:00,75.3,72.2,30.12,WSW,248,0.0,0.0,90,0.00,,---,0.00,VWS V14.01,2013-08-22 09:36:00,
2013-08-22 05:41:00,75.3,72.2,30.12,WSW,248,0.0,0.0,90,0.00,,---,0.00,VWS V14.01,2013-08-22 09:41:00,
2013-08-22 05:46:00,75.3,72.2,30.12,WSW,248,0.0,0.0,90,0.00,,---,0.00,VWS V14.01,2013-08-22 09:46:00,
2013-08-22 05:51:00,75.3,72.2,30.12,WSW,248,0.0,0.0,90,0.00,,---,0.00,VWS V14.01,2013-08-22 09:51:00,
2013-08-22 05:56:00,75.3,72.2,30.12,WSW,248,0.0,0.0,90,0.00,,---,0.00,VWS V14.01,2013-08-22 09:56:00,
2013-08-22 06:01:00,75.4,72.3,30.11,WSW,248,0.0,0.0,90,0.00,,---,0.00,VWS V14.01,2013-08-22 10:01:00,
2013-08-22 06:06:00,75.4,72.3,30.11,WSW,248,0.0,0.0,90,0.00,,---,0.00,VWS V14.01,2013-08-22 10:06:00,
2013-08-22 06:11:00,75.4,72.3,30.11,WSW,248,0.0,0.0,90,0.00,,---,0.00,VWS V14.01,2013-08-22 10:11:00,
2013-08-22 06:16:00,75.5,72.4,30.11,WSW,248,0.0,0.0,90,0.00,,---,0.00,VWS V14.01,2013-08-22 10:16:00,
2013-08-22 06:21:00,75.5,72.4,30.11,WSW,248,0.0,0.0,90,0.00,,---,0.00,VWS V14.01,2013-08-22 10:21:00,
2013-08-22 06:26:00,75.5,72.4,30.11,WSW,248,0.0,0.0,90,0.00,,---,0.00,VWS V14.01,2013-08-22 10:26:00,
2013-08-22 06:31:00,75.5,72.4,30.12,WSW,248,0.0,0.0,90,0.00,,---,0.00,VWS V14.01,2013-08-22 10:31:00,
2013-08-22 06:36:00,75.3,72.2,30.12,WSW,248,0.0,0.0,90,0.00,,---,0.00,VWS V14.01,2013-08-22 10:36:00,
2013-08-22 06:41:00,75.3,72.2,30.12,WSW,248,0.0,0.0,90,0.00,,---,0.00,VWS V14.01,2013-08-22 10:41:00,
2013-08-22 06:46:00,75.2,72.1,30.12,WSW,248,0.0,0.0,90,0.00,,---,0.00,VWS V14.01,2013-08-22 10:46:00,
2013-08-22 08:27:00,78.3,74.5,30.14,WSW,248,0.0,0.0,88,0.00,,---,0.00,VWS V14.01,2013-08-22 12:27:00,
2013-08-22 08:32:00,78.3,74.1,30.14,WSW,250,0.0,0.0,87,0.00,,---,0.00,VWS V14.01,2013-08-22 12:32:00,
2013-08-22 08:37:00,78.4,74.2,30.14,WSW,250,0.0,0.0,87,0.00,,---,0.00,VWS V14.01,2013-08-22 12:37:00,
2013-08-22 08:42:00,78.5,74.3,30.14,WSW,257,0.0,0.0,87,0.00,,---,0.00,VWS V14.01,2013-08-22 12:42:00,
2013-08-22 08:47:00,78.6,74.4,30.14,WSW,257,0.0,0.0,87,0.00,,---,0.00,VWS V14.01,2013-08-22 12:47:00,
2013-08-22 08:52:00,78.5,74.7,30.14,WSW,257,0.0,0.0,88,0.00,,---,0.00,VWS V14.01,2013-08-22 12:52:00,
2013-08-22 08:57:00,78.5,74.7,30.14,WSW,257,0.0,0.0,88,0.00,,---,0.00,VWS V14.01,2013-08-22 12:57:00,
2013-08-22 09:00:00,78.5,74.7,30.14,WSW,257,0.0,0.0,88,0.00,,---,0.00,VWS V14.01,2013-08-22 13:00:00,
2013-08-22 09:05:00,78.4,74.6,30.14,WSW,257,0.0,0.0,88,0.00,,---,0.00,VWS V14.01,2013-08-22 13:05:00,
2013-08-22 09:10:00,78.4,74.6,30.14,WSW,257,0.0,0.0,88,0.00,,---,0.00,VWS V14.01,2013-08-22 13:10:00,
2013-08-22 09:15:00,78.6,74.8,30.14,WSW,257,0.0,0.0,88,0.00,,---,0.00,VWS V14.01,2013-08-22 13:15:00,
2013-08-22 09:20:00,78.7,74.8,30.14,WSW,257,0.0,0.0,88,0.00,,---,0.00,VWS V14.01,2013-08-22 13:20:00,
2013-08-22 09:25:00,78.7,74.8,30.14,WSW,257,0.0,0.0,88,0.00,,---,0.00,VWS V14.01,2013-08-22 13:25:00,
2013-08-22 09:30:00,79.0,75.5,30.14,WSW,257,0.0,0.0,89,0.00,,---,0.00,VWS V14.01,2013-08-22 13:30:00,
2013-08-22 09:35:00,78.8,74.9,30.14,WSW,257,0.0,0.0,88,0.00,,---,0.00,VWS V14.01,2013-08-22 13:35:00,
2013-08-22 09:40:00,78.9,75.4,30.14,WSW,257,0.0,0.0,89,0.00,,---,0.00,VWS V14.01,2013-08-22 13:40:00,
2013-08-22 09:45:00,78.9,75.4,30.14,WSW,257,0.0,0.0,89,0.00,,---,0.00,VWS V14.01,2013-08-22 13:45:00,
2013-08-22 09:50:00,79.1,75.2,30.14,WSW,257,0.0,0.0,88,0.00,,---,0.00,VWS V14.01,2013-08-22 13:50:00,
2013-08-22 09:55:00,79.0,75.5,30.14,WSW,255,0.0,0.0,89,0.00,,---,0.00,VWS V14.01,2013-08-22 13:55:00,
2013-08-22 10:00:00,79.1,75.2,30.14,WSW,255,0.0,0.0,88,0.00,,---,0.00,VWS V14.01,2013-08-22 14:00:00,
2013-08-22 10:05:00,79.3,75.8,30.14,WSW,255,0.0,0.0,89,0.00,,---,0.00,VWS V14.01,2013-08-22 14:05:00,
2013-08-22 10:10:00,79.4,75.9,30.14,WSW,254,0.0,0.0,89,0.00,,---,0.00,VWS V14.01,2013-08-22 14:10:00,
2013-08-22 10:15:00,79.2,75.7,30.14,WSW,253,0.0,0.0,89,0.00,,---,0.00,VWS V14.01,2013-08-22 14:15:00,
2013-08-22 10:20:00,79.2,75.7,30.14,WSW,248,0.0,0.0,89,0.00,,---,0.00,VWS V14.01,2013-08-22 14:20:00,
2013-08-22 10:25:00,79.5,76.0,30.14,WSW,247,0.0,0.0,89,0.00,,---,0.00,VWS V14.01,2013-08-22 14:25:00,
2013-08-22 10:30:00,79.2,75.7,30.14,WSW,247,0.0,0.0,89,0.00,,---,0.00,VWS V14.01,2013-08-22 14:30:00,
2013-08-22 10:35:00,79.2,75.7,30.14,WSW,247,0.0,0.0,89,0.00,,---,0.00,VWS V14.01,2013-08-22 14:35:00,
2013-08-22 10:40:00,79.4,75.9,30.14,WSW,247,0.0,0.0,89,0.00,,---,0.00,VWS V14.01,2013-08-22 14:40:00,
2013-08-22 10:45:00,79.6,76.1,30.14,WSW,247,0.0,0.0,89,0.00,,---,0.00,VWS V14.01,2013-08-22 14:45:00,
2013-08-22 10:50:00,79.5,76.0,30.14,WSW,247,0.0,0.0,89,0.00,,---,0.00,VWS V14.01,2013-08-22 14:50:00,
2013-08-22 10:55:00,79.4,75.5,30.14,WSW,246,0.0,0.0,88,0.00,,---,0.00,VWS V14.01,2013-08-22 14:55:00,
2013-08-22 11:00:00,79.7,76.2,30.14,WSW,246,0.0,0.0,89,0.00,,---,0.00,VWS V14.01,2013-08-22 15:00:00,
2013-08-22 11:05:00,79.6,75.7,30.14,WSW,246,0.0,0.0,88,0.00,,---,0.00,VWS V14.01,2013-08-22 15:05:00,
2013-08-22 11:10:00,79.6,75.7,30.14,WSW,245,0.0,0.0,88,0.00,,---,0.00,VWS V14.01,2013-08-22 15:10:00,
2013-08-22 11:15:00,79.6,75.7,30.14,WSW,245,0.0,0.0,88,0.00,,---,0.00,VWS V14.01,2013-08-22 15:15:00,
2013-08-22 11:20:00,79.8,75.9,30.14,WSW,244,0.0,0.0,88,0.00,,---,0.00,VWS V14.01,2013-08-22 15:20:00,
2013-08-22 11:25:00,79.7,75.8,30.14,WSW,243,0.0,0.0,88,0.00,,---,0.00,VWS V14.01,2013-08-22 15:25:00,
2013-08-22 11:30:00,79.7,75.8,30.13,WSW,243,0.0,0.0,88,0.00,,---,0.00,VWS V14.01,2013-08-22 15:30:00,
2013-08-22 11:35:00,79.8,75.9,30.13,WSW,243,0.0,0.0,88,0.00,,---,0.00,VWS V14.01,2013-08-22 15:35:00,
2013-08-22 11:40:00,79.9,75.7,30.13,WSW,243,0.0,0.0,87,0.00,,---,0.00,VWS V14.01,2013-08-22 15:40:00,
2013-08-22 11:45:00,80.1,76.2,30.13,WSW,243,0.0,0.0,88,0.00,,---,0.00,VWS V14.01,2013-08-22 15:45:00,
2013-08-22 11:50:00,79.9,75.7,30.13,WSW,243,0.0,0.0,87,0.00,,---,0.00,VWS V14.01,2013-08-22 15:50:00,
2013-08-22 11:55:00,80.0,75.8,30.13,WSW,243,0.0,0.0,87,0.00,,---,0.00,VWS V14.01,2013-08-22 15:55:00,
2013-08-22 12:00:00,80.1,75.9,30.13,WSW,243,0.0,0.0,87,0.00,,---,0.00,VWS V14.01,2013-08-22 16:00:00,
2013-08-22 12:05:00,80.2,76.0,30.13,WSW,243,0.0,0.0,87,0.00,,---,0.00,VWS V14.01,2013-08-22 16:05:00,
2013-08-22 12:10:00,80.2,76.0,30.13,WSW,242,0.0,0.0,87,0.00,,---,0.00,VWS V14.01,2013-08-22 16:10:00,
2013-08-22 12:15:00,80.3,76.1,30.11,WSW,242,0.0,0.0,87,0.00,,---,0.00,VWS V14.01,2013-08-22 16:15:00,
2013-08-22 12:20:00,80.4,76.5,30.11,WSW,242,0.0,0.0,88,0.00,,---,0.00,VWS V14.01,2013-08-22 16:20:00,
2013-08-22 12:25:00,80.3,76.1,30.11,WSW,242,0.0,0.0,87,0.00,,---,0.00,VWS V14.01,2013-08-22 16:25:00,
2013-08-22 12:30:00,80.3,76.1,30.11,WSW,241,0.0,0.0,87,0.00,,---,0.00,VWS V14.01,2013-08-22 16:30:00,
2013-08-22 12:35:00,80.6,76.7,30.11,WSW,240,0.0,0.0,88,0.00,,---,0.00,VWS V14.01,2013-08-22 16:35:00,
2013-08-22 12:40:00,80.6,76.4,30.11,WSW,240,0.0,0.0,87,0.00,,---,0.00,VWS V14.01,2013-08-22 16:40:00,
2013-08-22 12:45:00,80.5,76.3,30.11,WSW,240,0.0,0.0,87,0.00,,---,0.00,VWS V14.01,2013-08-22 16:45:00,
2013-08-22 12:50:00,80.7,76.8,30.11,WSW,238,0.0,0.0,88,0.00,,---,0.00,VWS V14.01,2013-08-22 16:50:00,
2013-08-22 12:55:00,80.7,76.8,30.11,WSW,237,0.0,0.0,88,0.00,,---,0.00,VWS V14.01,2013-08-22 16:55:00,
2013-08-22 13:00:00,80.3,76.1,30.11,SW,236,0.0,0.0,87,0.00,,---,0.00,VWS V14.01,2013-08-22 17:00:00,
2013-08-22 13:05:00,80.5,76.3,30.11,SW,236,0.0,0.0,87,0.00,,---,0.00,VWS V14.01,2013-08-22 17:05:00,
2013-08-22 13:10:00,80.5,76.3,30.11,SW,236,0.0,0.0,87,0.00,,---,0.00,VWS V14.01,2013-08-22 17:10:00,
2013-08-22 13:15:00,80.9,77.0,30.10,SW,236,0.0,0.0,88,0.00,,---,0.00,VWS V14.01,2013-08-22 17:15:00,
2013-08-22 13:20:00,80.7,76.8,30.10,SW,236,0.0,0.0,88,0.00,,---,0.00,VWS V14.01,2013-08-22 17:20:00,
2013-08-22 13:25:00,80.6,76.4,30.10,SW,236,0.0,0.0,87,0.00,,---,0.00,VWS V14.01,2013-08-22 17:25:00,
2013-08-22 13:30:00,80.6,76.4,30.10,SW,236,0.0,0.0,87,0.00,,---,0.00,VWS V14.01,2013-08-22 17:30:00,
2013-08-22 13:35:00,80.6,76.4,30.10,SW,236,0.0,0.0,87,0.00,,---,0.00,VWS V14.01,2013-08-22 17:35:00,
2013-08-22 13:40:00,80.8,76.6,30.10,SW,236,0.0,0.0,87,0.00,,---,0.00,VWS V14.01,2013-08-22 17:40:00,
2013-08-22 13:45:00,80.7,76.8,30.10,SW,232,0.0,0.0,88,0.00,,---,0.00,VWS V14.01,2013-08-22 17:45:00,
2013-08-22 13:50:00,80.6,76.7,30.10,SW,232,0.0,0.0,88,0.00,,---,0.00,VWS V14.01,2013-08-22 17:50:00,
2013-08-22 13:55:00,80.5,76.6,30.10,SW,232,0.0,0.0,88,0.00,,---,0.00,VWS V14.01,2013-08-22 17:55:00,
2013-08-22 14:00:00,80.6,76.7,30.09,SW,232,0.0,0.0,88,0.00,,---,0.00,VWS V14.01,2013-08-22 18:00:00,
2013-08-22 14:05:00,80.7,76.8,30.09,SW,232,0.0,0.0,88,0.00,,---,0.00,VWS V14.01,2013-08-22 18:05:00,
2013-08-22 14:10:00,80.7,76.8,30.09,SW,232,0.0,0.0,88,0.00,,---,0.00,VWS V14.01,2013-08-22 18:10:00,
2013-08-22 14:15:00,80.6,76.7,30.08,SW,232,0.0,0.0,88,0.00,,---,0.00,VWS V14.01,2013-08-22 18:15:00,
2013-08-22 14:20:00,80.7,76.8,30.08,SW,232,0.0,0.0,88,0.00,,---,0.00,VWS V14.01,2013-08-22 18:20:00,
2013-08-22 14:25:00,80.6,76.7,30.08,SW,232,0.0,0.0,88,0.00,,---,0.00,VWS V14.01,2013-08-22 18:25:00,
2013-08-22 14:30:00,80.6,76.7,30.08,SW,232,0.0,0.0,88,0.00,,---,0.00,VWS V14.01,2013-08-22 18:30:00,
2013-08-22 14:35:00,80.5,77.0,30.08,SW,234,0.0,0.0,89,0.00,,---,0.00,VWS V14.01,2013-08-22 18:35:00,
2013-08-22 14:40:00,80.6,77.1,30.08,SW,236,0.0,0.0,89,0.00,,---,0.00,VWS V14.01,2013-08-22 18:40:00,
2013-08-22 14:45:00,80.6,76.7,30.07,WSW,237,0.0,0.0,88,0.00,,---,0.00,VWS V14.01,2013-08-22 18:45:00,
2013-08-22 14:50:00,80.7,77.2,30.07,WSW,237,0.0,0.0,89,0.00,,---,0.00,VWS V14.01,2013-08-22 18:50:00,
2013-08-22 14:55:00,80.7,77.2,30.07,WSW,238,0.0,0.0,89,0.00,,---,0.00,VWS V14.01,2013-08-22 18:55:00,
2013-08-22 15:00:00,80.7,77.2,30.07,WSW,239,0.0,0.0,89,0.00,,---,0.00,VWS V14.01,2013-08-22 19:00:00,
2013-08-22 15:05:00,80.6,76.7,30.07,WSW,241,0.0,0.0,88,0.00,,---,0.00,VWS V14.01,2013-08-22 19:05:00,
2013-08-22 15:10:00,80.5,77.0,30.07,WSW,242,0.0,0.0,89,0.00,,---,0.00,VWS V14.01,2013-08-22 19:10:00,
2013-08-22 15:15:00,80.4,76.5,30.06,WSW,243,0.0,0.0,88,0.00,,---,0.00,VWS V14.01,2013-08-22 19:15:00,
2013-08-22 15:20:00,80.5,76.6,30.06,WSW,242,0.0,0.0,88,0.00,,---,0.00,VWS V14.01,2013-08-22 19:20:00,
2013-08-22 15:25:00,80.7,77.2,30.06,WSW,241,0.0,0.0,89,0.00,,---,0.00,VWS V14.01,2013-08-22 19:25:00,
2013-08-22 15:30:00,80.7,77.2,30.05,WSW,240,0.0,0.0,89,0.00,,---,0.00,VWS V14.01,2013-08-22 19:30:00,
2013-08-22 15:35:00,80.7,77.2,30.05,WSW,240,0.0,0.0,89,0.00,,---,0.00,VWS V14.01,2013-08-22 19:35:00,
2013-08-22 15:40:00,80.7,77.2,30.05,WSW,240,0.0,0.0,89,0.00,,---,0.00,VWS V14.01,2013-08-22 19:40:00,
2013-08-22 15:45:00,81.0,77.5,30.04,WSW,240,0.0,0.0,89,0.00,,---,0.00,VWS V14.01,2013-08-22 19:45:00,
2013-08-22 15:50:00,80.9,77.4,30.04,WSW,237,0.0,0.0,89,0.00,,---,0.00,VWS V14.01,2013-08-22 19:50:00,
2013-08-22 15:55:00,80.9,77.4,30.04,WSW,240,0.0,0.0,89,0.00,,---,0.00,VWS V14.01,2013-08-22 19:55:00,
2013-08-22 16:00:00,80.8,77.3,30.04,WSW,238,0.0,0.0,89,0.00,,---,0.00,VWS V14.01,2013-08-22 20:00:00,
2013-08-22 16:05:00,80.5,77.0,30.04,SW,236,0.0,0.0,89,0.00,,---,0.00,VWS V14.01,2013-08-22 20:05:00,
2013-08-22 16:10:00,80.7,77.2,30.04,SW,236,0.0,0.0,89,0.00,,---,0.00,VWS V14.01,2013-08-22 20:10:00,
2013-08-22 16:15:00,80.7,77.2,30.03,SW,236,0.0,0.0,89,0.00,,---,0.00,VWS V14.01,2013-08-22 20:15:00,
2013-08-22 16:20:00,80.6,77.1,30.03,SW,236,0.0,0.0,89,0.00,,---,0.00,VWS V14.01,2013-08-22 20:20:00,
2013-08-22 16:25:00,80.7,77.2,30.03,SW,235,0.0,0.0,89,0.00,,---,0.00,VWS V14.01,2013-08-22 20:25:00,
2013-08-22 16:30:00,80.8,77.3,30.03,SW,234,0.0,0.0,89,0.00,,---,0.00,VWS V14.01,2013-08-22 20:30:00,
2013-08-22 16:35:00,80.5,76.6,30.03,SW,234,0.0,0.0,88,0.00,,---,0.00,VWS V14.01,2013-08-22 20:35:00,
2013-08-22 16:40:00,80.8,77.3,30.03,SW,234,0.0,0.0,89,0.00,,---,0.00,VWS V14.01,2013-08-22 20:40:00,
2013-08-22 16:45:00,80.7,76.8,30.03,SW,234,0.0,0.0,88,0.00,,---,0.00,VWS V14.01,2013-08-22 20:45:00,
2013-08-22 16:50:00,80.7,76.8,30.03,SW,234,0.0,0.0,88,0.00,,---,0.00,VWS V14.01,2013-08-22 20:50:00,
2013-08-22 16:55:00,80.9,76.7,30.03,SW,234,0.0,0.0,87,0.00,,---,0.00,VWS V14.01,2013-08-22 20:55:00,
2013-08-22 17:00:00,81.2,77.0,30.04,SW,234,0.0,0.0,87,0.00,,---,0.00,VWS V14.01,2013-08-22 21:00:00,
2013-08-22 17:05:00,81.4,77.2,30.04,SW,235,0.0,0.0,87,0.00,,---,0.00,VWS V14.01,2013-08-22 21:05:00,
2013-08-22 17:10:00,81.3,77.1,30.04,SW,236,0.0,0.0,87,0.00,,---,0.00,VWS V14.01,2013-08-22 21:10:00,
2013-08-22 17:15:00,81.1,76.9,30.03,SW,235,0.0,0.0,87,0.00,,---,0.00,VWS V14.01,2013-08-22 21:15:00,
2013-08-22 17:20:00,81.1,76.9,30.03,SW,235,0.0,0.0,87,0.00,,---,0.00,VWS V14.01,2013-08-22 21:20:00,
2013-08-22 17:25:00,81.4,77.5,30.03,SW,234,0.0,0.0,88,0.00,,---,0.00,VWS V14.01,2013-08-22 21:25:00,
2013-08-22 17:30:00,81.2,77.0,30.02,SW,234,0.0,0.0,87,0.00,,---,0.00,VWS V14.01,2013-08-22 21:30:00,
2013-08-22 17:35:00,81.3,77.4,30.02,SW,234,0.0,0.0,88,0.00,,---,0.00,VWS V14.01,2013-08-22 21:35:00,
2013-08-22 17:40:00,81.2,77.0,30.02,SW,235,0.0,0.0,87,0.00,,---,0.00,VWS V14.01,2013-08-22 21:40:00,
2013-08-22 17:45:00,81.1,76.9,30.02,SW,235,0.0,0.0,87,0.00,,---,0.00,VWS V14.01,2013-08-22 21:45:00,
2013-08-22 17:50:00,81.3,77.4,30.02,SW,233,0.0,0.0,88,0.00,,---,0.00,VWS V14.01,2013-08-22 21:50:00,
2013-08-22 17:55:00,81.2,77.3,30.02,SW,235,0.0,0.0,88,0.00,,---,0.00,VWS V14.01,2013-08-22 21:55:00,
2013-08-22 18:00:00,81.2,77.3,30.03,SW,232,0.0,0.0,88,0.00,,---,0.00,VWS V14.01,2013-08-22 22:00:00,
2013-08-22 18:05:00,81.2,77.3,30.03,SW,231,0.0,0.0,88,0.00,,---,0.00,VWS V14.01,2013-08-22 22:05:00,
2013-08-22 18:10:00,81.2,77.0,30.03,SW,232,0.0,0.0,87,0.00,,---,0.00,VWS V14.01,2013-08-22 22:10:00,
2013-08-22 18:15:00,81.2,77.3,30.02,SW,230,0.0,0.0,88,0.00,,---,0.00,VWS V14.01,2013-08-22 22:15:00,
2013-08-22 18:20:00,81.1,77.2,30.02,SW,229,0.0,0.0,88,0.00,,---,0.00,VWS V14.01,2013-08-22 22:20:00,
2013-08-22 18:25:00,81.3,77.4,30.02,SW,229,0.0,0.0,88,0.00,,---,0.00,VWS V14.01,2013-08-22 22:25:00,
2013-08-22 18:30:00,81.2,77.3,30.03,SW,232,0.0,0.0,88,0.00,,---,0.00,VWS V14.01,2013-08-22 22:30:00,
2013-08-22 18:35:00,81.2,77.3,30.03,SW,231,0.0,0.0,88,0.00,,---,0.00,VWS V14.01,2013-08-22 22:35:00,
2013-08-22 18:40:00,81.1,76.9,30.03,SW,234,0.0,0.0,87,0.00,,---,0.00,VWS V14.01,2013-08-22 22:40:00,
2013-08-22 18:45:00,81.1,76.9,30.02,SW,233,0.0,0.0,87,0.00,,---,0.00,VWS V14.01,2013-08-22 22:45:00,
2013-08-22 18:50:00,81.2,76.6,30.02,WSW,238,0.0,0.0,86,0.00,,---,0.00,VWS V14.01,2013-08-22 22:50:00,
2013-08-22 18:55:00,81.4,76.5,30.02,WSW,239,0.0,0.0,85,0.00,,---,0.00,VWS V14.01,2013-08-22 22:55:00,
2013-08-22 19:00:00,81.4,76.5,30.02,WSW,243,0.0,0.0,85,0.00,,---,0.00,VWS V14.01,2013-08-22 23:00:00,
2013-08-22 19:05:00,81.4,76.8,30.02,SW,236,0.0,0.0,86,0.00,,---,0.00,VWS V14.01,2013-08-22 23:05:00,
2013-08-22 19:10:00,81.3,76.7,30.02,SW,236,0.0,0.0,86,0.00,,---,0.00,VWS V14.01,2013-08-22 23:10:00,
2013-08-22 19:15:00,81.2,76.6,30.02,WSW,240,0.0,0.0,86,0.00,,---,0.00,VWS V14.01,2013-08-22 23:15:00,
2013-08-22 19:20:00,81.3,76.7,30.02,WSW,244,0.0,0.0,86,0.00,,---,0.00,VWS V14.01,2013-08-22 23:20:00,
2013-08-22 19:25:00,81.3,76.7,30.02,WSW,246,0.0,0.0,86,0.00,,---,0.00,VWS V14.01,2013-08-22 23:25:00,
2013-08-22 19:30:00,81.3,77.1,30.02,WSW,246,0.0,0.0,87,0.00,,---,0.00,VWS V14.01,2013-08-22 23:30:00,
2013-08-22 19:35:00,81.0,76.4,30.02,WSW,247,0.0,0.0,86,0.00,,---,0.00,VWS V14.01,2013-08-22 23:35:00,
2013-08-22 19:40:00,81.2,76.6,30.02,WSW,244,0.0,0.0,86,0.00,,---,0.00,VWS V14.01,2013-08-22 23:40:00,
2013-08-22 19:45:00,81.4,77.2,30.02,WSW,244,0.0,0.0,87,0.00,,---,0.00,VWS V14.01,2013-08-22 23:45:00,
2013-08-22 19:50:00,81.2,76.6,30.02,WSW,238,0.0,0.0,86,0.00,,---,0.00,VWS V14.01,2013-08-22 23:50:00,
2013-08-22 19:55:00,81.2,76.6,30.02,SW,232,0.0,0.0,86,0.00,,---,0.00,VWS V14.01,2013-08-22 23:55:00,
2013-08-22 20:00:00,81.4,77.2,30.02,SW,233,0.0,0.0,87,0.00,,---,0.00,VWS V14.01,2013-08-23 00:00:00,
2013-08-22 20:05:00,81.2,76.6,30.02,WSW,237,0.0,0.0,86,0.00,,---,0.00,VWS V14.01,2013-08-23 00:05:00,
2013-08-22 20:10:00,81.2,76.6,30.02,WSW,240,0.0,0.0,86,0.00,,---,0.00,VWS V14.01,2013-08-23 00:10:00,
2013-08-22 20:15:00,81.2,76.6,30.03,WSW,242,0.0,0.0,86,0.00,,---,0.00,VWS V14.01,2013-08-23 00:15:00,
2013-08-22 20:20:00,81.0,76.4,30.03,WSW,244,0.0,0.0,86,0.00,,---,0.00,VWS V14.01,2013-08-23 00:20:00,
2013-08-22 20:25:00,81.0,76.4,30.03,WSW,242,0.0,0.0,86,0.00,,---,0.00,VWS V14.01,2013-08-23 00:25:00,
2013-08-22 20:30:00,81.0,76.4,30.03,WSW,244,0.0,0.0,86,0.00,,---,0.00,VWS V14.01,2013-08-23 00:30:00,
2013-08-22 20:35:00,80.8,76.2,30.03,WSW,251,0.0,0.0,86,0.00,,---,0.00,VWS V14.01,2013-08-23 00:35:00,
2013-08-22 20:40:00,80.5,75.9,30.03,WSW,250,0.0,0.0,86,0.00,,---,0.00,VWS V14.01,2013-08-23 00:40:00,
2013-08-22 20:45:00,80.5,75.6,30.04,WSW,246,0.0,0.0,85,0.00,,---,0.00,VWS V14.01,2013-08-23 00:45:00,
2013-08-22 20:50:00,80.6,76.0,30.04,WSW,249,0.0,0.0,86,0.00,,---,0.00,VWS V14.01,2013-08-23 00:50:00,
2013-08-22 20:54:00,80.5,76.6,30.04,WSW,249,0.0,0.0,88,0.00,,---,0.00,VWS V14.01,2013-08-23 00:54:00,
2013-08-22 20:59:00,80.2,76.3,30.03,WSW,248,0.0,0.0,88,0.00,,---,0.00,VWS V14.01,2013-08-23 00:59:00,
2013-08-22 21:04:00,80.0,75.8,30.03,WSW,251,0.0,0.0,87,0.00,,---,0.00,VWS V14.01,2013-08-23 01:04:00,
2013-08-22 21:09:00,80.3,76.1,30.03,WSW,252,0.0,0.0,87,0.00,,---,0.00,VWS V14.01,2013-08-23 01:09:00,
2013-08-22 21:14:00,80.2,75.6,30.03,WSW,254,0.0,0.0,86,0.00,,---,0.00,VWS V14.01,2013-08-23 01:14:00,
2013-08-22 21:19:00,80.1,74.8,30.03,WSW,255,0.0,0.0,84,0.00,,---,0.00,VWS V14.01,2013-08-23 01:19:00,
2013-08-22 21:24:00,80.1,74.5,30.03,WSW,256,0.0,0.0,83,0.00,,---,0.00,VWS V14.01,2013-08-23 01:24:00,
2013-08-22 21:29:00,80.2,74.6,30.04,West,260,0.0,0.0,83,0.00,,---,0.00,VWS V14.01,2013-08-23 01:29:00,
2013-08-22 21:34:00,80.1,73.4,30.04,West,259,0.0,0.0,80,0.00,,---,0.00,VWS V14.01,2013-08-23 01:34:00,
2013-08-22 21:39:00,79.9,72.8,30.04,West,259,0.0,0.0,79,0.00,,---,0.00,VWS V14.01,2013-08-23 01:39:00,
2013-08-22 21:44:00,80.0,73.3,30.04,West,259,0.0,0.0,80,0.00,,---,0.00,VWS V14.01,2013-08-23 01:44:00,
2013-08-22 21:49:00,79.7,72.6,30.04,West,259,0.0,0.0,79,0.00,,---,0.00,VWS V14.01,2013-08-23 01:49:00,
2013-08-22 21:54:00,79.6,72.9,30.04,West,261,0.0,0.0,80,0.00,,---,0.00,VWS V14.01,2013-08-23 01:54:00,
2013-08-22 21:59:00,79.6,73.3,30.04,West,265,0.0,0.0,81,0.00,,---,0.00,VWS V14.01,2013-08-23 01:59:00,
2013-08-22 22:05:00,79.0,72.3,30.04,West,271,0.0,0.0,80,0.00,,---,0.00,VWS V14.01,2013-08-23 02:05:00,
2013-08-22 22:09:00,78.8,71.7,30.04,West,271,0.0,0.0,79,0.00,,---,0.00,VWS V14.01,2013-08-23 02:09:00,
2013-08-22 22:14:00,78.7,71.6,30.04,West,271,0.0,0.0,79,0.00,,---,0.00,VWS V14.01,2013-08-23 02:14:00,
2013-08-22 22:19:00,78.5,71.8,30.04,West,271,0.0,0.0,80,0.00,,---,0.00,VWS V14.01,2013-08-23 02:19:00,
2013-08-22 22:24:00,78.3,71.3,30.04,West,272,0.0,0.0,79,0.00,,---,0.00,VWS V14.01,2013-08-23 02:24:00,
2013-08-22 22:29:00,78.3,71.3,30.03,West,272,0.0,0.0,79,0.00,,---,0.00,VWS V14.01,2013-08-23 02:29:00,
2013-08-22 22:34:00,78.9,72.6,30.03,West,262,0.0,0.0,81,0.00,,---,0.00,VWS V14.01,2013-08-23 02:34:00,
2013-08-22 22:39:00,79.2,73.2,30.03,West,262,0.0,0.0,82,0.00,,---,0.00,VWS V14.01,2013-08-23 02:39:00,
2013-08-22 22:44:00,78.5,72.2,30.03,West,264,0.0,0.0,81,0.00,,---,0.00,VWS V14.01,2013-08-23 02:44:00,
2013-08-22 22:49:00,78.8,73.2,30.03,West,263,0.0,0.0,83,0.00,,---,0.00,VWS V14.01,2013-08-23 02:49:00,
2013-08-22 22:54:00,79.0,73.4,30.03,West,261,0.0,0.0,83,0.00,,---,0.00,VWS V14.01,2013-08-23 02:54:00,
2013-08-22 22:59:00,78.9,73.3,30.03,West,260,0.0,0.0,83,0.00,,---,0.00,VWS V14.01,2013-08-23 02:59:00,
2013-08-22 23:04:00,78.8,73.2,30.03,West,259,0.0,0.0,83,0.00,,---,0.00,VWS V14.01,2013-08-23 03:04:00,
2013-08-22 23:09:00,78.8,73.2,30.03,WSW,257,0.0,0.0,83,0.00,,---,0.00,VWS V14.01,2013-08-23 03:09:00,
2013-08-22 23:14:00,79.0,73.8,30.04,WSW,257,0.0,0.0,84,0.00,,---,0.00,VWS V14.01,2013-08-23 03:14:00,
2013-08-22 23:19:00,78.8,73.2,30.04,West,259,0.0,0.0,83,0.00,,---,0.00,VWS V14.01,2013-08-23 03:19:00,
2013-08-22 23:24:00,78.9,73.7,30.04,West,261,0.0,0.0,84,0.00,,---,0.00,VWS V14.01,2013-08-23 03:24:00,
2013-08-22 23:29:00,78.9,73.7,30.04,West,264,0.0,0.0,84,0.00,,---,0.00,VWS V14.01,2013-08-23 03:29:00,
2013-08-22 23:34:00,78.5,73.3,30.04,West,268,0.0,0.0,84,0.00,,---,0.00,VWS V14.01,2013-08-23 03:34:00,
2013-08-22 23:39:00,78.2,73.0,30.04,West,269,0.0,0.0,84,0.00,,---,0.00,VWS V14.01,2013-08-23 03:39:00,
2013-08-22 23:44:00,77.8,72.6,30.04,West,269,0.0,0.0,84,0.00,,---,0.00,VWS V14.01,2013-08-23 03:44:00,
2013-08-22 23:49:00,77.6,72.0,30.04,West,269,0.0,0.0,83,0.00,,---,0.00,VWS V14.01,2013-08-23 03:49:00,
2013-08-22 23:54:00,77.5,71.9,30.04,West,269,0.0,0.0,83,0.00,,---,0.00,VWS V14.01,2013-08-23 03:54:00,
2013-08-22 23:59:00,77.5,71.9,30.03,West,269,0.0,0.0,83,0.00,,---,0.00,VWS V14.01,2013-08-23 03:59:00,